Location: Degersen
(52.2871°N, 9.5716°E)
Time: 14:04:07
(UTC+00:00)

CZ-4C R/B - Pass Details

Date: 20 January 2026
Orbit: 482 x 1496 km, 63.4° (Epoch: 16 February)

Event Time Altitude Azimuth Distance (km) Brightness Sun altitude
Exits shadow 03:28:08 31° 11° (N) 1,658 3.8 -34.7°
Drops below altitude 10° 03:34:16 10° 69° (ENE) 3,061 5.9 -33.8°
Sets 03:37:45 0° 79° (E) 4,194 6.9 -33.2°
